TimeEST,TemperatureF,Dew PointF,Humidity,Sea Level PressureIn,VisibilityMPH,Wind Direction,Wind SpeedMPH,Gust SpeedMPH,PrecipitationIn,Events,Conditions,WindDirDegrees,DateUTC
12:51 AM,37.9,25.0,60,30.17,10.0,NNW,5.8,-,N/A,,Overcast,330,2012-12-15 05:51:00
1:51 AM,34.0,24.1,67,30.19,10.0,Calm,Calm,-,N/A,,Overcast,0,2012-12-15 06:51:00
2:51 AM,32.0,23.0,69,30.20,10.0,Calm,Calm,-,N/A,,Clear,0,2012-12-15 07:51:00
3:51 AM,30.9,23.0,72,30.22,10.0,WNW,3.5,-,N/A,,Clear,300,2012-12-15 08:51:00
4:51 AM,28.9,21.0,72,30.25,10.0,NW,6.9,-,N/A,,Clear,310,2012-12-15 09:51:00
5:51 AM,28.9,21.0,72,30.27,10.0,WNW,11.5,-,N/A,,Clear,300,2012-12-15 10:51:00
6:51 AM,28.4,19.4,69,30.28,10.0,North,3.5,-,N/A,,Clear,10,2012-12-15 11:51:00
7:51 AM,26.1,19.0,75,30.31,10.0,West,3.5,-,N/A,,Clear,280,2012-12-15 12:51:00
8:51 AM,32.0,18.0,56,30.32,10.0,NNW,9.2,18.4,N/A,,Clear,330,2012-12-15 13:51:00
9:51 AM,34.0,17.1,50,30.33,10.0,NW,10.4,-,N/A,,Clear,320,2012-12-15 14:51:00
10:51 AM,35.6,15.8,44,30.30,10.0,North,9.2,-,N/A,,Clear,360,2012-12-15 15:51:00
11:51 AM,37.9,8.1,29,30.30,10.0,North,8.1,-,N/A,,Clear,360,2012-12-15 16:51:00
12:51 PM,37.9,6.1,27,30.29,10.0,WNW,8.1,-,N/A,,Clear,300,2012-12-15 17:51:00
1:51 PM,39.0,6.1,26,30.28,10.0,NNW,4.6,-,N/A,,Clear,340,2012-12-15 18:51:00
2:51 PM,37.9,6.1,27,30.28,10.0,WNW,5.8,-,N/A,,Clear,290,2012-12-15 19:51:00
3:51 PM,34.0,7.0,32,30.30,10.0,WNW,3.5,-,N/A,,Clear,300,2012-12-15 20:51:00
4:51 PM,30.0,3.9,33,30.30,10.0,NNW,4.6,-,N/A,,Clear,340,2012-12-15 21:51:00
5:51 PM,23.0,9.0,55,30.31,10.0,SE,3.5,-,N/A,,Clear,130,2012-12-15 22:51:00
6:51 PM,23.0,12.9,65,30.33,10.0,Calm,Calm,-,N/A,,Clear,0,2012-12-15 23:51:00
7:51 PM,21.9,9.0,58,30.35,10.0,Calm,Calm,-,N/A,,Clear,0,2012-12-16 00:51:00
8:51 PM,21.0,9.0,60,30.35,10.0,Calm,Calm,-,N/A,,Clear,0,2012-12-16 01:51:00
9:51 PM,21.0,10.0,63,30.36,10.0,ENE,3.5,-,N/A,,Clear,70,2012-12-16 02:51:00
10:51 PM,24.1,12.0,60,30.35,10.0,East,6.9,-,N/A,,Mostly Cloudy,80,2012-12-16 03:51:00
11:51 PM,24.1,10.0,55,30.35,10.0,Calm,Calm,-,N/A,,Overcast,0,2012-12-16 04:51:00